User: anonymous   Login
Location: Unspecified
(0.0000°N, 0.0000°E)
Time: 19:14:11
(UTC+00:00)
Language:

TBA - TO BE ASSIGNED - Orbit

View from above orbital plane
View from above orbital plane
View from above satellite
View from above satellite

Ground track
Ground track

The orbit is defined by the following mean orbital elements,

1 68858U          26145.58335647 +.00000000 +00000-0 +45217-3 0 00009
2 68858  97.2852 160.3515 0001621  89.0574 308.5166 15.49173867    04
Epoch (UTC): 25 May 2026 14:00:01
Eccentricity: 0.0001621
inclination: 97.2852°
perigee height: 418 km
apogee height: 420 km
right ascension of ascending node: 160.3515°
argument of perigee: 89.0574°
revolutions per day: 15.49173867
mean anomaly at epoch: 308.5166°

The dashed part of the orbit path shows where the satellite is in the earth's shadow,  

DLR